Zurück zum Katalog

GEESAT 1-02

AktivWissenschaftLEO
NORAD 52786·PAYLOAD·🇨🇳 China

Gestartet Jun 2, 2022 von Xichang Satellite Launch Center

Loading…

Nächste Überflüge (nächste 24 Stunden)

TLE

AktuellSource: Space-Track

Epoche: Sep 14, 2026, 21:54 UTC

1 52786U 22058B   26257.91255188  .00001125  00000-0  16959-3 0  9998
2 52786  50.0004 148.3691 0022384 235.2830 124.6000 14.81599726233231

Verfolge GEESAT 1-02 in Echtzeit mit AllMySat

Download on the App Store